Weather History for KDYT - April, 2013

Change the Weather History Date:

Tuesday, April 16, 2013

  Actual Average Record
Temperature  
Mean Temperature 38 °F -  
Max Temperature 42 °F 50 °F 81 °F (1958)
Min Temperature 33 °F 31 °F 13 °F (1962)
Degree Days  
Heating Degree Days 28    
Moisture  
Dew Point 30 °F    
Average Humidity 76    
Maximum Humidity 87    
Minimum Humidity 49    
Precipitation  
Precipitation 0.00 in - - ()
Sea Level Pressure  
Sea Level Pressure 30.14 in    
Wind  
Wind Speed 9 mph (West)    
Max Wind Speed 14 mph    
Max Gust Speed 17 mph    
Visibility 10 miles    
Events Rain    
Averages and records for this station are not official NWS values.
T = Trace of Precipitation, MM = Missing Value Source: NWS Daily Summary

Daily Weather History Graph

Daily Weather History Graph

Search for Another Location

Airport or City:

Trip Planner

Search our weather history database for the weather conditions in past years. The results will help you decide how hot, cold, wet, or windy it might be!

Date:

Astronomy

Apr. 16, 2013 Rise Set
Actual Time 6:18 AM CDT 7:58 PM CDT
Civil Twilight 5:46 AM CDT 8:30 PM CDT
Nautical Twilight 5:07 AM CDT 9:09 PM CDT
Astronomical Twilight 4:25 AM CDT 9:51 PM CDT
Moon 10:27 AM CDT (4/16) 1:05 AM CDT (4/16)
Length of Visible Light 14h 43m
Length of Day
13h 39m
Waxing Crescent, 33% of the Moon is Illuminated
Apr 16
Waxing Crescent
Apr 18
First Quarter
Apr 25
Full
May 2
Last Quarter
May 9
New

Hourly Weather History & Observations

Time (CDT) Temp. Windchill Dew Point Humidity Pressure Visibility Wind Dir Wind Speed Gust Speed Precip Events Conditions
12:13 AM 35.6 °F 27.5 °F 30.2 °F 81% 29.87 in 10.0 mi SW 11.5 mph - N/A   Scattered Clouds
12:33 AM 35.6 °F 27.5 °F 30.2 °F 81% 29.87 in 10.0 mi SW 11.5 mph - N/A   Scattered Clouds
12:53 AM 35.6 °F 28.0 °F 30.2 °F 81% 29.88 in 10.0 mi SW 10.4 mph - N/A   Scattered Clouds
1:14 AM 35.6 °F 28.6 °F 30.2 °F 81% 29.88 in 10.0 mi SW 9.2 mph - N/A   Overcast
1:33 AM 35.6 °F 28.6 °F 32.0 °F 87% 29.88 in 10.0 mi SW 9.2 mph - N/A   Overcast
1:53 AM 35.6 °F 28.0 °F 32.0 °F 87% 29.88 in 10.0 mi SW 10.4 mph - N/A   Overcast
2:14 AM 35.6 °F 27.5 °F 32.0 °F 87% 29.90 in 10.0 mi SW 11.5 mph - N/A   Overcast
2:33 AM 35.6 °F 27.1 °F 32.0 °F 87% 29.91 in 10.0 mi SW 12.7 mph - N/A   Overcast
2:53 AM 35.6 °F 28.0 °F 32.0 °F 87% 29.90 in 10.0 mi WSW 10.4 mph - N/A   Overcast
3:14 AM 35.6 °F 28.6 °F 32.0 °F 87% 29.91 in 10.0 mi WSW 9.2 mph - N/A   Overcast
3:33 AM 35.6 °F 28.6 °F 32.0 °F 87% 29.91 in 10.0 mi WSW 9.2 mph - N/A   Overcast
3:54 AM 35.6 °F 28.6 °F 32.0 °F 87% 29.91 in 10.0 mi SW 9.2 mph - N/A   Overcast
4:13 AM 35.6 °F 28.6 °F 32.0 °F 87% 29.92 in 10.0 mi WSW 9.2 mph - N/A   Overcast
4:33 AM 35.6 °F 28.0 °F 30.2 °F 81% 29.94 in 10.0 mi WSW 10.4 mph - N/A   Scattered Clouds
4:54 AM 33.8 °F 26.4 °F 30.2 °F 87% 29.94 in 10.0 mi WSW 9.2 mph - N/A   Clear
5:13 AM 35.6 °F 28.6 °F 30.2 °F 81% 29.95 in 10.0 mi West 9.2 mph - N/A   Scattered Clouds
5:34 AM 33.8 °F 26.4 °F 30.2 °F 87% 29.97 in 10.0 mi SW 9.2 mph - N/A   Mostly Cloudy
5:54 AM 33.8 °F 26.4 °F 30.2 °F 87% 29.98 in 10.0 mi SW 9.2 mph - N/A   Overcast
6:13 AM 33.8 °F 27.0 °F 30.2 °F 87% 29.98 in 10.0 mi WSW 8.1 mph - N/A   Overcast
6:34 AM 33.8 °F 27.0 °F 30.2 °F 87% 30.00 in 10.0 mi SW 8.1 mph - N/A   Mostly Cloudy
7:13 AM 35.6 °F 29.9 °F 30.2 °F 81% 30.03 in 10.0 mi WSW 6.9 mph - N/A   Overcast
7:34 AM 35.6 °F 29.2 °F 30.2 °F 81% 30.04 in 10.0 mi West 8.1 mph - N/A   Overcast
7:53 AM 35.6 °F 29.2 °F 30.2 °F 81% 30.05 in 10.0 mi West 8.1 mph - N/A   Overcast
8:13 AM 35.6 °F 28.0 °F 30.2 °F 81% 30.06 in 10.0 mi West 10.4 mph - N/A   Overcast
8:34 AM 35.6 °F 28.6 °F 30.2 °F 81% 30.08 in 10.0 mi West 9.2 mph - N/A   Overcast
8:53 AM 37.4 °F 32.8 °F 30.2 °F 75% 30.08 in 10.0 mi WNW 5.8 mph 9.2 mph N/A   Overcast
9:13 AM 35.6 °F 29.2 °F 30.2 °F 81% 30.09 in 10.0 mi WNW 8.1 mph - N/A   Mostly Cloudy
9:34 AM 37.4 °F 28.9 °F 30.2 °F 75% 30.10 in 10.0 mi West 13.8 mph - N/A   Scattered Clouds
9:53 AM 35.6 °F 26.6 °F 30.2 °F 81% 30.12 in 10.0 mi West 13.8 mph - N/A Rain Light Rain
10:13 AM 37.4 °F 30.8 °F 30.2 °F 75% 30.13 in 10.0 mi WNW 9.2 mph - N/A   Mostly Cloudy
10:34 AM 37.4 °F 30.8 °F 32.0 °F 81% 30.14 in 10.0 mi NNW 9.2 mph - N/A   Scattered Clouds
10:53 AM 37.4 °F 30.8 °F 30.2 °F 75% 30.15 in 10.0 mi NW 9.2 mph - N/A   Mostly Cloudy
11:13 AM 39.2 °F 32.0 °F 26.6 °F 61% 30.15 in 10.0 mi WNW 11.5 mph 16.1 mph N/A   Overcast
11:34 AM 39.2 °F 31.2 °F 26.6 °F 61% 30.16 in 10.0 mi NW 13.8 mph - N/A   Overcast
11:53 AM 39.2 °F 31.2 °F 24.8 °F 56% 30.17 in 10.0 mi NW 13.8 mph - N/A   Overcast
12:13 PM 41.0 °F 33.9 °F 26.6 °F 57% 30.18 in 10.0 mi NW 12.7 mph - N/A   Overcast
12:34 PM 42.8 °F 36.2 °F 26.6 °F 53% 30.18 in 10.0 mi WNW 12.7 mph 17.3 mph N/A   Mostly Cloudy
12:53 PM 41.0 °F 34.3 °F 26.6 °F 57% 30.19 in 10.0 mi WNW 11.5 mph - N/A   Scattered Clouds
1:14 PM 42.8 °F 38.6 °F 26.6 °F 53% 30.20 in 10.0 mi West 6.9 mph - N/A   Scattered Clouds
1:34 PM 42.8 °F 37.5 °F 24.8 °F 49% 30.20 in 10.0 mi NW 9.2 mph - N/A   Overcast
1:53 PM 42.8 °F 37.5 °F 24.8 °F 49% 30.20 in 10.0 mi WNW 9.2 mph - N/A   Mostly Cloudy
2:14 PM 39.2 °F 35.9 °F 28.4 °F 65% 30.21 in 10.0 mi North 4.6 mph - N/A   Mostly Cloudy
2:33 PM 39.2 °F 35.0 °F 28.4 °F 65% 30.22 in 10.0 mi North 5.8 mph - N/A   Mostly Cloudy
2:53 PM 39.2 °F 33.6 °F 28.4 °F 65% 30.22 in 10.0 mi North 8.1 mph - N/A   Mostly Cloudy
3:13 PM 39.2 °F 35.9 °F 28.4 °F 65% 30.23 in 10.0 mi North 4.6 mph - N/A   Overcast
3:33 PM 39.2 °F 34.2 °F 30.2 °F 70% 30.23 in 10.0 mi NE 6.9 mph - N/A   Overcast
3:54 PM 37.4 °F 32.1 °F 30.2 °F 75% 30.24 in 10.0 mi NE 6.9 mph - N/A   Overcast
4:13 PM 37.4 °F 32.8 °F 30.2 °F 75% 30.24 in 10.0 mi NE 5.8 mph - N/A   Overcast
4:33 PM 37.4 °F 32.1 °F 30.2 °F 75% 30.25 in 10.0 mi ENE 6.9 mph - N/A   Mostly Cloudy
4:54 PM 39.2 °F 35.0 °F 28.4 °F 65% 30.26 in 10.0 mi ENE 5.8 mph - N/A   Overcast
5:13 PM 37.4 °F 32.1 °F 30.2 °F 75% 30.26 in 10.0 mi East 6.9 mph - N/A   Mostly Cloudy
5:33 PM 37.4 °F 32.1 °F 30.2 °F 75% 30.27 in 10.0 mi ESE 6.9 mph - N/A   Scattered Clouds
5:53 PM 37.4 °F 31.4 °F 30.2 °F 75% 30.28 in 10.0 mi ESE 8.1 mph - N/A   Mostly Cloudy
6:13 PM 37.4 °F 32.1 °F 30.2 °F 75% 30.28 in 10.0 mi ESE 6.9 mph - N/A   Mostly Cloudy
6:34 PM 37.4 °F 32.1 °F 30.2 °F 75% 30.28 in 10.0 mi ESE 6.9 mph - N/A   Mostly Cloudy
6:53 PM 37.4 °F 32.8 °F 28.4 °F 70% 30.29 in 10.0 mi East 5.8 mph - N/A   Mostly Cloudy
7:14 PM 37.4 °F 32.8 °F 30.2 °F 75% 30.28 in 10.0 mi East 5.8 mph - N/A   Scattered Clouds
7:33 PM 35.6 °F 31.7 °F 30.2 °F 81% 30.29 in 10.0 mi East 4.6 mph - N/A   Clear
7:53 PM 35.6 °F 32.8 °F 28.4 °F 75% 30.29 in 10.0 mi ESE 3.5 mph - N/A   Clear
8:14 PM 35.6 °F - 28.4 °F 75% 30.31 in 10.0 mi Calm Calm - N/A   Clear
8:33 PM 35.6 °F - 28.4 °F 75% 30.32 in 10.0 mi Calm Calm - N/A   Scattered Clouds
8:53 PM 35.6 °F - 28.4 °F 75% 30.33 in 10.0 mi Calm Calm - N/A   Scattered Clouds
9:14 PM 35.6 °F - 28.4 °F 75% 30.34 in 10.0 mi Calm Calm - N/A   Scattered Clouds
9:33 PM 33.8 °F - 28.4 °F 81% 30.34 in 10.0 mi Calm Calm - N/A   Mostly Cloudy
9:54 PM 33.8 °F - 28.4 °F 81% 30.35 in 10.0 mi Calm Calm - N/A   Overcast
10:13 PM 35.6 °F - 28.4 °F 75% 30.35 in 10.0 mi Calm Calm - N/A   Overcast
10:34 PM 33.8 °F - 28.4 °F 81% 30.36 in 10.0 mi Calm Calm - N/A   Overcast
10:53 PM 33.8 °F 28.6 °F 30.2 °F 87% 30.37 in 10.0 mi ENE 5.8 mph - N/A   Overcast
11:13 PM 33.8 °F 27.7 °F 30.2 °F 87% 30.37 in 10.0 mi ENE 6.9 mph - N/A   Overcast
11:34 PM 33.8 °F 26.4 °F 30.2 °F 87% 30.37 in 10.0 mi NE 9.2 mph - N/A   Overcast
11:53 PM 33.8 °F 24.8 °F 30.2 °F 87% 30.37 in 10.0 mi ENE 12.7 mph - N/A   Overcast